Home > Weather > Pembroke Pines > Past weeks

Flag for USA Past Weather in Pembroke Pines, Florida, USA — Yesterday and Last 2 Weeks

Now
87 °F

Passing clouds.


Feels Like: 91 °F
Forecast: 73 / 89 °F
Wind: 5 mph from North

Location: North Perry Airport

Current Time: May 29, 2016 at 11:25:40 AM

Latest Report: May 29, 2016 at 10:53 AM


Visibility: 10 mi

Pressure: 30.08 "Hg

Humidity: 55%

Dew Point: 69 °F

Location of Pembroke PinesLocation

Past Weather in Pembroke Pines — Graph

°F

Pembroke Pines Temperature Yesterday

Maximum temperature yesterday: 85 °F (at 5:53 PM)
Minimum temperature yesterday: 73 °F (at 5:53 AM)
Average temperature yesterday: 77 °F

High & Low Weather Summary for the Past Weeks

 TemperatureHumidityPressure
High94 °F (May 21, 1:53 PM)97% (May 28, 11:53 AM)30.19 "Hg (May 28, 11:53 AM)
Low71 °F (May 26, 6:53 AM)34% (May 26, 12:53 PM)29.85 "Hg (May 22, 6:53 PM)
Average81 °F71%30.03 "Hg
* Reported May 14 9:53 AM — May 29 9:53 AM, Pembroke Pines, Weather by CustomWeather, © 2016

Note: Actual official high and low records may vary slightly from our data, if they occured in-between our weather recording intervals... More about our weather records

Advertising

Pembroke Pines Weather History for the Previous 24 Hours

Scroll right to see more
 ConditionsComfort  
Time TempWeatherWind HumidityBarometerVisibility
9:53 AM
Sun, May 29
85 °FScattered clouds.5 mph65%30.08 "Hg10 mi
8:53 AM82 °FSunny.3 mph74%30.07 "Hg10 mi
7:53 AM77 °FSunny.3 mph88%30.06 "Hg10 mi
6:53 AM73 °FClear.No wind94%30.05 "Hg10 mi
5:53 AM73 °FClear.No wind90%30.04 "Hg10 mi
4:53 AM74 °FPassing clouds.No wind91%30.03 "Hg10 mi
3:53 AM74 °FPassing clouds.No wind88%30.03 "Hg10 mi
2:53 AM74 °FClear.No wind91%30.03 "Hg10 mi
1:53 AM74 °FClear.No wind88%30.04 "Hg10 mi
12:53 AM76 °FClear.No wind82%30.06 "Hg10 mi
11:53 PM
Sat, May 28
76 °FClear.No wind82%30.06 "Hg10 mi
10:53 PM78 °FClear.No wind76%30.06 "Hg10 mi
9:53 PM77 °FClear.3 mph79%30.05 "Hg10 mi
8:53 PM77 °FSunny.5 mph77%30.03 "Hg10 mi
7:53 PM81 °FSunny.7 mph62%30.01 "Hg10 mi
6:53 PM83 °FSunny.7 mph59%29.99 "Hg10 mi
5:53 PM85 °FSunny.6 mph57%29.99 "Hg10 mi
4:53 PM84 °FSunny.7 mph59%29.99 "Hg10 mi
3:53 PM82 °FSunny.5 mph63%30.00 "Hg10 mi
2:53 PM77 °FSunny.3 mph77%30.01 "Hg10 mi
1:53 PM75 °FSunny.3 mph82%30.03 "Hg10 mi
12:53 PM75 °FPassing clouds.6 mph88%30.06 "Hg10 mi
11:53 AM74 °FLight rain. Broken clouds.8 mph97%30.07 "Hg10 mi
Weather by CustomWeather, © 2016

See weather overviewHow to use our weather pages